Tracking 19832 objects as of 24-Aug-2019
HD Live streaming from Space Station
objects crossing your sky now

FENGYUN 1C DEB

Track FENGYUN 1C DEB now!
10-day predictions


NORAD ID: 31297
Int'l Code: 1999-025BPF
Perigee: 624.0 km
Apogee: 843.5 km
Inclination: 98.9 °
Period: 99.3 minutes
Semi major axis: 7104 km
RCS: 0.0028 m2 (small)
Launch date: May 10, 1999
Source: People's Republic of China (PRC)
Launch site: Taiyaun Space Center, China (TSC)

Note: This is SATELLITE DEBRIS
aabbcc
Your satellite tracking list
Your tracking list is empty




NASA's NSSDC Master Catalog

Two Line Element Set (TLE):
1 31297U 99025BPF 19235.36808582 +.00000168 +00000-0 +50930-4 0  9993
2 31297 098.9363 191.3256 0154471 222.7379 290.3637 14.49718231658978
Source of the keplerian elements: AFSPC